Location: Narrabri
(30.3170°S, 149.7830°E)
Time: 09:21:07
(UTC+11:00)

N. Korean satellite - Pass Details

Date: 11 October 2017
Orbit: 461 x 513 km, 97.2° (Epoch: 13 December)

Event Time Altitude Azimuth Distance (km) Brightness Sun altitude
Rises 19:31:59 0° 165° (SSE) 2,662 10.3 -5.9°
Reaches altitude 10° 19:34:09 10° 160° (SSE) 1,765 9.3 -6.3°
Maximum altitude 19:37:54 58° 80° (E) 606 6.7 -7.1°
Drops below altitude 10° 19:41:35 10° 0° (N) 1,726 9.2 -7.9°
Sets 19:43:40 0° 356° (N) 2,596 10.2 -8.3°
